Location: ?ejeti?ky
(50.4060°N, 14.9016°E)
Time: 22:17:54
(UTC+00:00)

STARLINK-1364 - Pass Details

Date: 03 October 2020
Orbit: 548 x 551 km, 53.0° (Epoch: 23 October)

Event Time Altitude Azimuth Distance (km) Brightness Sun altitude
Exits shadow 01:38:31 23° 68° (ENE) 1,209 5.9 -31.7°
Drops below altitude 10° 01:40:07 10° 71° (ENE) 1,830 7.1 -31.5°
Sets 01:42:22 0° 72° (ENE) 2,726 8.2 -31.2°
